Find Starlink 34973

NORAD ID: 65250 Int'l Des: 2025-179 Owner: SPXS Country: US Constellation: starlink operational
LEOCIRCULARRETROGRADESSO

Live Position

Loading 3D Globe...

About Starlink 34973

Description loading...

Upcoming Passes

Passes for default location (London). Set your location on the main map for personalized predictions.

Altitude History

Loading altitude history...

Two-Line Element Set

1 65250U 25179R 26103.58939894 .00003715 00000-0 26157-3 0 9999
2 65250 97.6043 147.4299 0000825 118.1863 241.9447 15.05650078 37062
Epoch: Apr 13, 2026 • Age: 23 hours

Current Status

Altitude 562.4 km
Velocity 7.59 km/s
Sub-Earth Point 80.61°N, 59.53°E
Launch Date Aug 18, 2025
Age 0.6 years
Type internet

Technical Details

Classification Payload
Mass 575.00 kg
Dry Mass 530.00 kg
Total Mass 575.00 kg
Length 0.30 m
Diameter 4.10 m
Span 29.00 m
Shape Box + pan
Manufacturer SPXS
Bus Type Starlink V2MO
Phase Status In Orbit
Owner/State SPXS/US

Most Searched